Probability
1 1 0 0 0 0 0 0 0 0 0 0 0 0 0 0 0 0 0 0 1 2 3 2 1 0 0 0 1 2 2 3 2 1 2 2 2 1 0 0 0 0 0
1 0 0 0 0 0 0 0 0 0 0 0 0 0 0 0 0 0 0 0 1 2 2 1 0 0 0 0 0 1 1 2 2 1 1 1 1 0 0 0 0 0 0
0 0 0 0 0 0 0 0 0 0 1 1 0 1 1 0 0 1 0 0 0 1 1 0 0 0 0 0 0 0 0 1 1 1 0 0 0 0 0 0 0 0 0
0 0 0 0 0 0 0 0 0 0 1 1 1 1 1 0 0 0 0 0 0 0 0 0 0 0 0 0 0 0 0 0 0 0 0 0 0 0 0 0 0 0 0
0 0 0 0 0 0 0 0 0 0 1 1 0 1 1 0 0 0 0 0 0 0 0 0 0 0 0 0 0 0 0 0 0 0 0 0 0 0 0 0 0 0 0
0 0 0 0 0 0 0 0 0 0 0 0 0 0 0 0 0 0 0 0 0 0 0 0 0 0 0 0 0 0 0 0 0 0 0 0 0 0 0 0 0 0 0
1 1 1 1 1 1 0 0 0 0 0 0 0 0 0 0 0 0 0 0 0 0 0 0 0 0 0 0 0 0 0 0 0 0 0 0 0 0 0 0 0 0 0
4 3 2 2 3 2 1 0 0 0 0 0 0 0 0 0 0 0 0 0 0 0 0 0 0 0 1 1 1 1 1 0 0 0 0 0 0 0 0 0 0 0 0
4 3 2 2 3 3 2 1 0 0 0 1 1 1 1 0 0 0 0 0 0 0 0 0 0 0 1 2 2 2 2 1 0 0 0 0 0 0 0 0 0 0 0
3 3 2 2 3 4 4 2 0 0 0 1 2 2 1 0 0 0 0 0 0 0 0 0 0 0 0 1 1 2 2 1 0 0 0 0 0 0 0 0 0 0 0
2 3 3 3 2 3 5 3 1 0 0 1 1 1 1 0 0 0 0 0 0 0 0 0 0 0 0 0 0 1 1 0 0 0 0 0 0 0 0 0 0 0 0
4 4 5 5 3 4 5 4 2 1 1 0 0 0 0 0 0 0 0 0 0 0 0 0 0 0 0 0 0 0 1 0 0 0 0 0 0 0 0 0 0 0 0
5 5 7 8 7 6 6 4 2 2 2 1 1 0 0 0 0 0 0 0 0 0 0 0 0 0 0 0 0 0 0 0 0 0 0 0 0 0 0 0 0 0 0
6 7 9 11 11 9 8 6 3 3 3 3 3 2 0 0 0 0 0 0 0 0 0 0 0 0 0 0 0 0 0 0 0 0 0 0 0 0 0 0 0 0 0
8 10 12 14 14 12 10 9 6 5 5 5 5 5 2 1 0 0 0 0 0 0 0 0 1 1 0 0 0 1 1 1 0 0 0 0 0 0 0 0 0 0 0
11 12 14 16 18 17 13 11 9 9 9 9 9 9 6 3 1 1 0 0 0 0 0 1 2 2 1 0 0 1 2 2 1 1 0 0 0 0 0 0 0 0 0
15 16 16 17 21 21 16 12 11 12 12 15 18 16 10 6 4 3 2 1 1 1 1 1 2 2 1 0 0 1 1 2 2 2 1 1 1 0 0 0 0 0 0
23 22 19 19 23 25 20 14 14 15 17 21 25 23 16 10 7 5 4 3 3 3 2 1 2 2 1 0 0 0 1 2 3 3 3 2 2 1 0 0 0 0 0
33 30 25 23 27 29 24 18 17 19 22 25 26 26 20 13 9 7 7 6 5 4 3 2 3 3 1 1 0 1 2 3 3 3 3 3 3 2 1 0 0 0 0
42 38 32 31 33 32 27 22 20 22 25 27 27 25 20 13 10 10 9 9 7 5 4 4 4 3 2 2 1 1 3 4 4 3 3 2 2 3 3 1 1 0 1
51 47 42 39 38 35 29 25 23 23 25 26 27 25 18 14 13 13 12 11 10 8 7 7 6 4 3 3 3 3 4 5 6 4 3 2 3 5 5 3 2 2 2
58 55 50 47 43 39 32 26 26 26 25 24 25 25 20 16 16 14 14 13 14 13 12 11 10 7 6 6 6 6 6 7 7 5 4 5 6 7 5 3 3 5 5
59 58 56 53 49 44 36 28 27 30 27 24 26 27 23 19 17 16 16 16 17 18 17 15 13 11 9 9 9 9 9 8 6 5 4 6 8 9 5 2 3 7 8
59 59 60 58 53 47 40 32 28 30 29 27 28 29 26 21 17 16 17 19 20 19 18 16 14 12 11 10 11 12 11 9 6 4 3 3 6 6 4 2 4 9 13
56 59 62 61 55 47 39 34 29 27 27 27 27 28 27 23 18 17 20 23 23 21 18 16 15 13 12 11 11 11 9 8 6 4 1 1 2 3 3 3 6 12 15
52 56 61 61 56 46 36 33 30 26 24 25 26 27 27 25 20 20 22 24 24 23 20 17 16 16 13 12 11 8 7 7 6 4 1 0 0 1 2 4 8 12 14
Wind_Speed
12 13 13 14 14 15 15 14 14 15 15 15 15 16 16 16 16 16 17 16 16 15 15 15 14 14 14 15 14 14 14 15 15 16 16 15 14 13 13 14 14 11 15
15 13 14 14 14 14 15 15 14 14 15 15 15 16 16 16 16 16 16 16 15 15 15 15 15 14 14 14 14 13 13 13 14 15 16 14 13 12 12 13 14 10 15
15 13 13 13 14 14 14 14 14 14 15 15 15 15 15 16 16 15 15 15 15 15 15 14 15 14 14 13 13 12 11 11 12 13 13 10 10 12 14 15 15 15 15
15 13 13 13 14 14 14 13 13 14 14 15 15 15 15 15 15 15 15 15 15 14 14 14 14 14 13 12 11 10 9 9 9 9 5 8 9 12 13 14 14 14 14
15 14 13 13 14 13 13 13 13 13 14 14 14 14 14 15 15 15 15 14 14 13 13 13 13 13 12 11 9 7 6 6 6 5 6 8 7 11 13 13 13 13 13
16 15 13 14 14 13 13 13 13 13 13 13 13 14 14 14 15 15 14 14 13 13 12 12 12 11 10 9 7 5 3 3 2 4 7 9 7 10 12 12 12 12 12
16 15 14 14 14 13 13 13 13 13 13 13 14 14 14 14 14 14 14 13 13 13 12 12 11 10 9 8 5 3 3 3 2 5 8 8 8 10 11 11 11 12 12
16 15 13 14 14 13 12 12 12 13 13 13 13 13 13 13 13 13 13 13 13 12 11 10 9 8 7 6 4 2 2 2 3 9 10 9 10 11 11 11 11 11 11
14 14 13 12 12 12 12 12 12 12 12 12 11 11 11 12 12 12 12 12 12 11 10 9 9 8 7 5 3 2 2 1 0 5 11 8 11 11 11 11 10 10 10
11 12 12 11 11 10 10 11 12 11 11 10 10 10 10 10 11 11 11 10 10 9 9 8 8 7 5 4 2 2 3 1 3 6 7 8 12 11 11 10 10 10 9
9 9 10 9 9 9 10 11 10 10 9 8 7 8 6 5 7 7 10 10 9 7 7 6 6 5 4 3 4 4 4 1 5 6 6 11 12 11 11 10 10 9 9
8 8 8 7 7 7 7 7 6 6 5 3 4 4 2 2 4 8 9 9 8 6 5 5 5 4 3 3 4 5 2 3 4 6 7 13 12 11 10 9 9 9 9
7 7 8 6 4 5 5 4 3 4 4 4 4 3 3 2 4 5 4 5 4 5 3 5 4 3 2 2 2 2 2 2 3 6 8 12 11 11 10 9 9 9 9
8 8 8 7 5 4 4 3 3 3 3 3 3 2 2 1 2 3 2 2 2 1 2 2 1 1 1 1 2 2 2 2 4 5 7 11 11 11 10 10 9 9 8
8 8 7 7 5 3 3 1 3 3 4 3 2 2 2 2 3 3 2 1 1 1 1 1 1 0 0 0 1 2 2 4 5 6 5 11 11 10 10 10 10 9 9
8 9 8 7 5 4 2 1 2 3 3 3 3 3 2 3 3 2 2 1 1 1 2 1 1 0 0 1 1 1 2 3 5 7 7 8 10 10 10 10 10 9 9
9 8 7 7 6 4 2 1 2 2 3 3 3 3 3 3 2 2 1 1 1 1 1 1 1 1 0 1 1 1 2 2 3 5 6 6 7 10 11 11 10 10 10
9 8 6 6 8 5 2 0 1 1 3 3 3 3 3 2 2 1 1 1 0 0 1 1 0 0 1 0 1 1 2 1 2 4 5 5 5 6 9 11 11 10 11
9 8 6 5 7 6 4 2 1 0 1 2 3 3 3 2 2 1 1 0 0 0 0 0 1 0 0 0 1 2 2 2 2 3 3 5 6 6 6 9 11 11 11
9 8 6 5 5 5 4 3 2 1 1 1 2 2 3 2 3 2 1 1 1 1 0 1 1 0 1 2 2 1 1 2 3 2 2 3 4 6 7 7 7 8 11
9 8 7 6 5 4 3 3 3 2 2 2 3 4 3 2 2 2 1 1 1 1 1 1 1 2 2 1 0 0 1 2 3 2 2 2 3 4 5 6 6 6 6
10 9 7 6 6 5 3 2 2 2 2 2 2 3 4 3 3 3 2 2 2 1 1 1 1 1 2 1 1 0 0 0 1 3 3 3 3 3 3 6 6 6 5
11 10 8 7 6 5 4 3 2 2 1 1 2 2 3 3 3 2 2 1 1 1 2 2 2 2 2 1 1 0 0 1 1 1 3 2 3 3 3 3 4 5 6
11 10 8 7 6 5 5 4 3 3 3 2 2 2 3 4 3 3 3 2 2 1 2 3 2 1 2 2 1 1 1 1 0 0 1 1 2 2 2 2 3 3 4
11 11 9 7 6 5 5 4 4 3 2 2 2 2 2 3 3 3 4 3 3 2 2 2 1 1 1 1 1 1 1 1 1 1 1 1 0 1 2 1 1 2 3
11 10 10 8 6 6 5 4 4 3 2 1 1 2 3 3 3 4 4 3 3 2 2 2 2 2 2 1 2 2 1 1 1 1 1 1 1 1 1 2 2 1 2
Wind_Direction
80 75 70 69 68 69 71 74 78 82 83 86 89 91 92 93 94 95 97 101 104 106 108 107 105 104 105 103 102 103 103 104 106 106 106 104 103 105 110 114 109 104 109
88 82 76 74 73 72 72 74 77 83 86 87 90 93 95 96 96 97 99 101 102 102 105 107 107 107 106 105 105 108 111 113 116 116 113 107 101 102 106 107 102 108 112
92 90 82 77 77 76 74 74 75 81 86 89 90 93 95 96 97 98 99 99 98 98 102 106 108 107 107 107 108 113 118 121 127 131 128 115 105 100 101 103 106 110 112
94 89 84 84 82 80 80 80 80 81 86 87 90 93 94 94 94 95 97 97 97 98 101 105 107 107 108 109 112 118 125 132 140 147 134 109 106 106 107 108 110 113 115
97 93 90 88 87 84 82 82 83 84 86 87 87 90 93 93 93 95 96 97 98 99 100 103 105 107 110 113 117 128 138 144 150 145 108 101 99 112 113 114 114 117 118
100 96 94 94 91 88 84 84 85 85 88 89 88 92 94 94 93 94 95 95 96 98 100 104 105 108 113 119 127 140 153 152 154 122 109 109 110 120 119 118 118 120 121
104 103 101 99 96 92 91 90 90 90 92 93 92 93 93 94 93 94 93 92 93 96 99 102 104 107 114 122 133 148 160 165 177 118 106 106 114 121 121 119 121 124 123
108 107 109 105 102 98 95 96 97 95 94 96 96 95 96 97 98 97 96 95 96 97 100 102 103 106 111 129 140 168 204 210 128 119 112 111 122 125 124 124 123 125 126
110 115 119 120 113 106 102 99 101 101 99 102 104 104 106 106 106 104 101 99 100 101 103 106 106 107 112 128 155 208 258 257 110 118 118 119 128 130 130 130 129 128 129
107 113 117 121 127 127 118 113 113 111 108 110 112 114 116 117 117 118 114 107 106 107 108 111 112 115 122 142 186 247 282 287 122 109 111 127 134 137 139 138 136 134 134
100 108 114 123 132 130 125 123 126 123 121 123 124 125 131 134 126 126 110 118 118 120 123 125 126 132 149 181 220 253 273 216 106 104 108 132 141 143 144 142 143 143 143
109 109 106 113 124 122 118 131 140 129 131 140 117 132 138 110 102 106 120 128 132 138 144 157 159 172 204 194 212 232 230 146 113 112 123 138 141 143 145 148 150 152 152
121 112 104 93 86 105 111 131 123 116 137 134 120 139 130 126 117 119 137 137 154 166 174 167 192 204 203 202 192 200 169 118 114 113 132 141 144 148 152 155 156 160 160
126 116 113 105 82 63 84 109 125 125 131 112 133 132 114 97 94 109 115 134 159 156 156 151 193 187 204 180 176 147 120 108 109 112 140 148 152 159 162 165 167 169 169
130 122 115 115 107 85 62 60 104 103 108 118 123 92 85 96 81 84 76 75 92 121 128 112 103 99 65 37 67 99 104 109 119 121 140 158 161 167 172 176 178 182 183
142 132 128 124 117 107 104 60 92 104 108 117 106 101 80 78 78 74 80 53 50 51 62 80 133 86 62 88 94 101 107 121 128 139 150 163 171 176 180 183 188 190 188
145 135 137 143 133 133 133 174 136 142 132 115 108 109 100 95 101 96 97 96 70 107 115 120 97 83 177 150 129 130 110 113 140 146 153 162 174 185 188 191 193 194 194
143 141 156 154 138 142 149 261 357 97 120 130 126 119 121 120 119 112 112 117 169 93 112 125 58 68 46 166 152 158 130 151 165 164 166 168 169 178 190 195 194 196 198
144 145 152 147 145 154 158 176 228 94 87 131 133 135 147 153 139 132 154 125 192 127 18 273 88 34 315 276 200 182 182 179 182 201 181 174 175 171 174 190 193 191 195
147 150 155 156 152 157 158 181 215 189 164 171 134 145 158 173 163 163 189 206 232 146 83 58 78 297 268 254 253 164 185 180 184 190 193 179 173 177 174 173 180 192 199
150 153 160 166 161 164 171 184 197 194 192 185 172 167 175 189 175 167 201 190 232 164 162 187 196 247 253 255 295 53 235 197 171 171 192 180 179 176 162 163 172 181 190
158 160 162 170 169 179 182 189 198 188 202 187 180 165 180 189 192 193 192 211 200 182 183 245 259 273 271 222 229 225 234 273 251 200 187 188 179 162 167 176 177 176 181
165 169 173 173 170 180 186 189 205 183 225 198 164 175 192 197 199 202 189 224 235 215 180 216 229 236 262 273 212 182 175 224 247 228 198 182 163 167 180 171 177 179 184
172 171 165 166 172 180 188 194 200 198 201 199 192 186 189 197 202 191 196 201 234 242 203 226 211 242 243 273 282 254 221 153 186 300 271 185 172 175 185 200 185 169 168
173 169 165 163 170 177 189 192 202 212 210 198 183 171 193 200 207 205 190 198 214 232 240 239 169 245 262 266 286 284 279 237 215 194 246 277 248 201 191 182 151 155 162
172 169 165 161 165 171 184 192 199 212 220 223 212 181 200 200 206 211 193 194 213 220 224 224 226 239 248 272 292 296 279 259 242 211 236 253 243 241 191 162 160 150 140